Location: DaVinci Observatory
(43.1080°N, 78.6453°W)
Time: 09:46:02
(UTC-04:00)

Vanguard 1 - Visible Passes

Search period start: 23 July 2018 00:00
Search period end: 02 August 2018 00:00
Orbit: 650 x 3833 km, 34.2° (Epoch: 22 July)

Date Brightness Start Highest point End Pass type
(mag) Time Alt. Az. Time Alt. Az. Time Alt. Az.
23 Jul 10.8 22:28:28 10° SW 22:34:45 25° SSE 22:35:46 24° SSE visible
24 Jul 10.6 22:49:00 10° SW 22:55:37 30° S 22:55:59 30° SSE visible
25 Jul 10.6 23:09:45 10° WSW 23:16:06 33° S 23:16:06 33° S visible
26 Jul 11.6 21:08:27 10° SW 21:17:01 28° SSE 21:22:32 10° ESE visible
26 Jul 10.7 23:30:40 10° WSW 23:36:09 33° SSW 23:36:09 33° SSW visible
27 Jul 11.3 21:28:54 10° SW 21:37:57 33° S 21:43:24 11° ESE visible
27 Jul 11.0 23:51:40 10° WSW 23:56:07 29° SW 23:56:07 29° SW visible
28 Jul 11.0 21:49:37 10° SW 21:58:52 37° S 22:03:18 16° ESE visible
29 Jul 11.4 00:12:46 10° WSW 00:16:01 23° SW 00:16:01 23° SW visible
29 Jul 10.9 22:10:33 10° WSW 22:19:44 41° S 22:23:10 23° ESE visible
30 Jul 11.8 00:33:56 10° WSW 00:35:53 17° WSW 00:35:53 17° WSW visible
30 Jul 10.7 22:31:37 10° WSW 22:40:35 42° S 22:42:59 31° SE visible
31 Jul 12.2 00:55:13 10° WSW 00:55:42 11° WSW 00:55:42 11° WSW visible
31 Jul 10.5 22:52:47 10° WSW 23:01:23 41° S 23:02:45 37° SSE visible
01 Aug 11.5 20:49:22 10° WSW 21:01:44 45° S 21:08:41 10° ESE visible
01 Aug 10.6 23:14:00 10° W 23:22:08 38° SSW 23:22:31 38° S visible
